Overview Statistics Trail Chart Weather Telemetry Raw packets
 

This is the latest recevied weather packets stored in our database for station/object IW1RCO-13. If no packets are shown the sender has not sent any weather packets the latest 10 day(s).

<< 68 69 70 71 72 73 74 >>
Time Temp. Humidity Pressure Rain* Wind** Luminosity Snow
1788077669 22.78° C 57% 1016.7 hPa - - - -
1788077365 22.78° C 61% 1016.5 hPa - - - -
1788077069 22.78° C 61% 1016.5 hPa - - - -
1788076772 22.22° C 63% 1016.1 hPa - - - -
1788076468 22.22° C 62% 1016.1 hPa - - - -
1788076172 22.22° C 61% 1016.1 hPa - - - -
1788075868 22.22° C 61% 1016.5 hPa - - - -
1788075572 22.22° C 59% 1016.1 hPa - - - -
1788075268 22.22° C 62% 1017.1 hPa - - - -
1788074971 21.67° C 60% 1016.1 hPa - - - -
1788074668 21.67° C 61% 1016.8 hPa - - - -
1788074371 21.67° C 62% 1016.1 hPa - - - -
1788071970 20° C 65% 1015.5 hPa - - - -
1788071666 19.44° C 69% 1015.2 hPa - - - -
1788071370 18.89° C 68% 1015.5 hPa - - - -
1788070770 18.33° C 72% 1015.8 hPa - - - -
1788070466 17.22° C 74% 1015.6 hPa - - - -
1788070169 17.22° C 73% 1016.3 hPa - - - -
1788069866 16.67° C 75% 1016.2 hPa - - - -
1788069569 16.67° C 75% 1015.8 hPa - - - -
1788069265 16.67° C 73% 1015.7 hPa - - - -
1788068969 16.67° C 73% 1015.5 hPa - - - -
1788068674 16.67° C 72% 1015.6 hPa - - - -
1788068368 16.11° C 76% 1015.8 hPa - - - -
1788068072 16.11° C 77% 1016.1 hPa - - - -

* Rain since midnight (hover to see other rain measurements)
** Current wind speed in m/s (hover to see current wind gust speed)